Regional Weather Roundup
Issued by NWS Sterling, VA

Home | Current Version | Previous Version | Text Only | Print | Product List | Glossary On
Versions: 1 2 3 4 5 6 7 8 9 10 11 12 13 14 15 16 17 18 19 20 21 22 23 24 25 26 27 28 29 30 31 32 33 34 35 36 37 38 39 40 41 42 43 44 45 46 47 48 49 50
000
ASUS41 KLWX 261010
RWRLWX

REGIONAL WEATHER ROUNDUP
NATIONAL WEATHER SERVICE BALTIMORE MD/WASHINGTON DC
600 AM EDT TUE MAY 26 2015

Note: "FAIR" indicates few or no clouds below 12,000 feet
with no significant weather and/or obstructions to visibility.
 TC=TEMPERATURE CELSIUS

 * =Non NWS site. Station does not report precipitation (e.g. rain,
    snow, etc.), thunder, or fog.

DCZ001-MDZ009-015-VAZ040>042-051-053>054-261100-
WASHINGTON METRO

CITY           SKY/WX    TMP DP  RH WIND       PRES   REMARKS
WASHINGTON NAT MOCLDY    69  60  73 S13       30.21F
DULLES         PTCLDY    62  56  80 S6        30.20S
ANDREWS AFB    CLEAR     64  60  86 S8        30.21S
FT BELVOIR     CLEAR     67  60  76 VRB2      30.22R
QUANTICO       CLEAR     66  58  75 SW8       30.23S
COLLEGE PARK*  CLEAR     68  61  77 S6        30.21R
LEESBURG*      CLEAR     63  59  88 S5        30.21S
MANASSAS*      CLEAR     61  57  88 S6        30.21S
GAITHERSBURG*  CLEAR     63  55  77 S5        30.24S

$$

MDZ006>007-011-014-261100-
BALTIMORE METRO

CITY           SKY/WX    TMP DP  RH WIND       PRES   REMARKS
BWI AIRPORT    PTCLDY    63  58  83 CALM      30.20S
MD SCIENCE CTR   N/A     66  58  75 MISG      30.21S
MARTIN STATE   PTCLDY    66  63  88 S6        30.22F
ANNAPOLIS      PTCLDY    66  58  75 S7        30.21S
FORT MEADE*    CLEAR     54  54 100 CALM      30.23S

$$

MDZ012-015-019>023-261100-
MARYLAND EASTERN SHORE

CITY           SKY/WX    TMP DP  RH WIND       PRES   REMARKS
OCEAN CITY     CLEAR     64  62  93 S7        30.27R
SALISBURY      CLEAR     61  60  97 S5        30.27R
BAY BRIDGE AP*   N/A    N/A N/A N/A S9        30.23S
CAMBRIDGE*     CLEAR     70  61  73 S7        30.25R
EASTON*        CLEAR     68  64  85 SW9       30.27R

$$

MDZ017>025-261100-
SOUTHERN MARYLAND

CITY           SKY/WX    TMP DP  RH WIND       PRES   REMARKS
PATUXENT RIVER MOCLDY    67  60  78 SW9       30.25R
ST INIGOES     CLEAR     68  61  78 S12       30.24R
LEONARDTOWN*   CLEAR     64  59  82 SW6       30.26R

$$

MDZ003>005-261100-
NORTH CENTRAL MARYLAND

CITY           SKY/WX    TMP DP  RH WIND       PRES   REMARKS
FREDERICK*     CLEAR     59  57  94 CALM      30.22S
HAGERSTOWN APT CLEAR     68  56  65 S5        30.18S
WESTMINSTER*   PTCLDY    64  57  77 S5        30.21R

$$

MDZ501>502-261100-
WESTERN MARYLAND

CITY           SKY/WX    TMP DP  RH WIND       PRES   REMARKS
OAKLAND*       CLEAR     61  61 100 S9        30.25S
CUMBERLAND*    PTCLDY    61  61 100 CALM      30.22S

$$

VAZ025>031-261100-
SHENANDOAH VALLEY

CITY           SKY/WX    TMP DP  RH WIND       PRES   REMARKS
WINCHESTER*    CLEAR     68  52  56 S5        30.19S
FRONT ROYAL*   FAIR      64  55  72 MISG      30.18S
LURAY*         FAIR      59  59 100 CALM      30.21S
NEW MARKET*    FAIR      58  56  90 CALM      30.21R
STAUNTON*      CLEAR     55  52  90 CALM      30.25S
WAYNESBORO*    FAIR      55  54  94 S6        30.24S

$$

WVZ021-048>050-054>055-261100-
EASTERN WEST VIRGINIA PANHANDLE

CITY           SKY/WX    TMP DP  RH WIND       PRES   REMARKS
MARTINSBURG    CLEAR     60  56  86 CALM      30.18S
PETERSBURG*    CLEAR     58  55  88 W5        30.20F

$$

VAZ036>039-050-261100-
CENTRAL FOOTHILLS

CITY           SKY/WX    TMP DP  RH WIND       PRES   REMARKS
CHARLOTTESVILL CLEAR     62  56  80 S7        30.22S
CULPEPER*      CLEAR     62  56  82 S7        30.22S
ORANGE*        CLEAR     59  55  88 CALM      30.23S
GORDONSVILLE*  FAIR      57  55  92 SW6       30.22S
WARRENTON*     FAIR      63  59  86 CALM      30.21S

$$

VAZ055>057-261100-
NORTH AND CENTRAL PIEDMONT

CITY           SKY/WX    TMP DP  RH WIND       PRES   REMARKS
FREDERICKSBRG* CLEAR     65  60  82 S7        30.22S
STAFFORD*      CLEAR     60  56  88 SE3       30.26S

$$

NCZ024-NYZ072-PAZ021-071-VAZ022-071-261100-
OTHER REGIONAL OBSERVATIONS

CITY           SKY/WX    TMP DP  RH WIND       PRES   REMARKS
NEW YORK CITY  CLEAR     67  54  63 W8G18     30.22R
PHILADELPHIA   PTCLDY    66  59  78 S9        30.22R
PITTSBURGH     MOCLDY    67  61  81 CALM      30.15S
ROANOKE        PTCLDY    60  56  86 CALM      30.27R
RICHMOND       PTCLDY    64  60  87 S7        30.26S
RALEIGH        MOCLDY    65  62  90 CALM      30.28R

$$

ANZ530>537-261100-
MARINE OBSERVATIONS

STATION/POSITION TIME  TEMP    WIND        PRES
                       AIR SEA DIR/SP/G
                 (UTC) (F)     (DEG/KT/KT) (MB)
THOMAS PT LIGHT  1000   67 66  200/ 14/ 16 1023.8S
BALT KEY BRIDGE  0900   66     180/ 10/ 12 1022.5R
LEWISETTA        0900   68 71              1023.8R
SOLOMONS ISLAND  0900      70                N/A
PINEY POINT      0900          230/ 16/ 17   N/A

$$



USA.gov is the U.S. government's official web portal to all federal, state and local government web resources and services.